Regional Weather Roundup
Issued by NWS Midland/Odessa, TX

Home | Current Version | Previous Version | Text Only | Print | Product List | Glossary On
Versions: 1 2 3 4 5 6 7 8 9 10 11 12 13 14 15 16 17 18 19 20 21 22 23 24 25 26 27 28 29 30 31 32 33 34 35 36 37 38 39 40 41 42 43 44 45 46 47 48 49 50
000
ASUS44 KMAF 221102
RWRMAF
MIDLAND AREA WEATHER ROUNDUP
NATIONAL WEATHER SERVICE MIDLAND TX
600 AM CDT MON SEP 22 2014

...IN SOUTHWEST TEXAS AND SOUTHEAST NEW MEXICO...

CITY           SKY/WX    TMP DP  RH WIND       PRES   REMARKS
ALPINE         CLOUDY    67  61  81 E3        30.29R
ANDREWS        MOCLDY    67  66  97 E7        30.23R
ARTESIA        NOT AVBL
BIG SPRING     CLOUDY    72  69  90 NE12      30.23R
CARLSBAD       CLOUDY    69  32  25 NE3       30.20S HAZE
DRYDEN           N/A     77  70  79 E9        30.14R
FORT STOCKTON  LGT RAIN  69  68  96 E6        30.19R
GUAD PASS      LGT RAIN  62  32  32 E26         N/A  VSB 1/4
HOBBS          NOT AVBL
MARFA          CLOUDY    63  63 100 CALM      30.28R
MIDLAND AIRPK  CLOUDY    70  70  98 E5        30.21S
MIDLAND INTL   CLOUDY    70  68  93 E7        30.20R
ODESSA         CLOUDY    69  67  93 E8        30.21S
PECOS          CLOUDY    68  66  94 E10       30.17R
PRESIDIO       CLOUDY    75  65  70 NE9G16    30.13R
SEMINOLE       CLOUDY    66  65  97 CALM      30.25S
SNYDER         CLOUDY    67  66  96 NE10      30.22S
WINK           LGT RAIN  69  67  93 SE6       30.18S
$$
...OTHER STATIONS IN TEXAS...

CITY           SKY/WX    TMP DP  RH WIND       PRES   REMARKS
ABILENE        PTCLDY    71  64  78 E9        30.19R
AMARILLO       CLEAR     58  54  86 SE7       30.31R
AUSTIN         CLEAR     68  66  93 CALM      30.09R
BROWNSVILLE    MOCLDY    77  75  93 NE6       29.96F
CORPUS CHRISTI PTCLDY    76  73  91 N5        30.02R
DALLAS FTW     CLOUDY    75  56  51 NE10      30.15R
DEL RIO        CLOUDY    76  70  82 SE6       30.09R
EL PASO        CLOUDY    70  65  84 N9        30.16S
HOUSTON INT    PTCLDY    74  70  87 NW3       30.05R
LUBBOCK        CLOUDY    65  63  93 E9        30.26S FOG
SAN ANGELO     CLOUDY    72  67  84 N3        30.16R
SAN ANTONIO    CLEAR     69  64  84 NW3       30.10R
WACO           MOCLDY    71  67  87 NE6       30.11R
WICHITA FALLS  NOT AVBL
$$
...OTHER LOCATIONS IN NEW MEXICO...

CITY           SKY/WX    TMP DP  RH WIND       PRES   REMARKS
ALAMAGORDO     CLOUDY    68  61  77 CALM      30.21R
ALBUQUERQUE    MOCLDY    67  55  65 E10       30.29S
CANNON AFB     CLOUDY    63  59  88 E8        30.31S
CLOVIS           N/A     61  57  88 E7        30.34R
HOLLOMAN AFB   CLOUDY    67  63  88 NE2       30.19R
ROSWELL        MOCLDY    66  65  96 NE5       30.24S
RUIDOSO        LGT RAIN  55  55 100 SE12      30.40F
SANTA FE       CLOUDY    63  53  70 SE8       30.36F
TRUTH OR CONSE CLOUDY    66  62  87 W5        30.23S
TUCUMCARI      CLOUDY    65  62  90 E9        30.29F
$$


USA.gov is the U.S. government's official web portal to all federal, state and local government web resources and services.